Regional Weather Roundup
Issued by NWS

Home | Current Version | Previous Version | Graphics & Text | Print | Product List | Glossary On
Versions: 1 2 3 4 5 6 7 8 9 10 11 12 13 14 15 16 17 18 19 20 21 22 23 24 25 26 27 28 29 30 31 32 33 34 35 36 37 38 39 40 41 42 43 44 45 46 47 48 49 50
000
ASUS43 KMKX 070259
RWRWI

WISCONSIN REGIONAL WEATHER ROUNDUP
NATIONAL WEATHER SERVICE MILWAUKEE/SULLIVAN WI
900 PM CST FRI MAR 06 2015

NOTE: "FAIR" INDICATES FEW OR NO CLOUDS BELOW 12,000 FEET WITH NO
SIGNIFICANT WEATHER AND/OR OBSTRUCTIONS TO VISIBILITY.

WIZ001-002-006>008-014>016-023>028-070400-
NORTHWEST WISCONSIN

CITY           SKY/WX    TMP DP  RH WIND       PRES   REMARKS
SUPERIOR ARPT  PTCLDY    27  11  52 SW5       29.99S WCI  21
ASHLAND        CLEAR     23   8  52 S7        29.98S WCI  15
HAYWARD        PTCLDY    20  11  68 S5        29.99S WCI  13
SIREN          PTCLDY    27  14  57 SW6       30.02F WCI  21
CUMBERLAND     PTCLDY    23  12  63 W6        30.01F WCI  16
RICE LAKE      PTCLDY    24  13  63 W5        30.03F WCI  18
CHETEK         PTCLDY    27  14  59 W3        30.02F
LADYSMITH      PTCLDY    19  11  72 SW5       30.02S WCI  12
EAU CLAIRE     NOT AVBL
MENOMONIE      PTCLDY    29  16  58 W5        30.05S WCI  23
NEW RICHMOND   CLEAR     23  14  68 SW6       30.05F WCI  15
OSCEOLA        CLEAR     21  13  73 SW7       30.08S WCI  12
$$

WIZ003>005-009-010-017-018-070400-
NORTH CENTRAL WISCONSIN

CITY           SKY/WX    TMP DP  RH WIND       PRES   REMARKS
MANITOWISH WTR CLEAR     12   7  79 CALM      29.94F
ARBOR VITAE    CLEAR     22  10  61 CALM      29.95S
WOODRUFF       CLEAR     22  10  61 CALM      29.95S
RHINELANDER    CLEAR     16   7  67 SW5       29.96S WCI   9
EAGLE RIVER    CLEAR     13   5  68 SW5       29.94S WCI   6
LAND O LAKES   CLEAR     10   4  76 CALM      29.94S
PHILLIPS       PTCLDY    19  10  70 SW3       29.97F
TOMAHAWK       CLEAR     22  11  63 CALM      29.98F
MEDFORD        PTCLDY    17  10  74 W5        29.99F WCI  10
MERRILL        CLEAR     19  11  72 CALM      30.00S
$$

WIZ029-030-035-036-043>047-070400-
CENTRAL WISCONSIN

CITY           SKY/WX    TMP DP  RH WIND       PRES   REMARKS
WAUSAU         PTCLDY    22  13  68 NW6       30.00S WCI  14
MOSINEE        NOT AVBL
MARSHFIELD     MOCLDY    24  14  65 W6        30.02S WCI  17
STEVENS POINT  PTCLDY    25  14  63 CALM      30.03S
WAUPACA        PTCLDY    27  15  62 SW3       30.04S
WAUTOMA        NOT AVBL
WISC RAPIDS    MOCLDY    27  15  61 SW5       30.05S WCI  22
CAMP DOUGLAS   NOT AVBL
$$

WIZ011>013-019>022-031-037>040-048>050-070400-
NORTHEAST WISCONSIN

CITY           SKY/WX    TMP DP  RH WIND       PRES   REMARKS
ANTIGO         CLEAR     19  11  70 W7        29.98S WCI  10
SHAWANO        PTCLDY    29  14  53 W5        30.03S WCI  24
OCONTO         PTCLDY    17  11  74 SW5       30.03S WCI  10
STURGEON BAY   FAIR      21  12  68 SW8       30.05R WCI  12
GREEN BAY      PTCLDY    21  14  74 S5        30.05R WCI  15
MANITOWOC      NOT AVBL
APPLETON       PTCLDY    23  12  63 SW8       30.04S WCI  14
CLINTONVILLE   PTCLDY    18  10  73 CALM      30.04R
OSHKOSH        PTCLDY    24  15  68 SW9       30.06R WCI  14
$$

WIZ032>034-041-042-053>061-070400-
SOUTHWEST WISCONSIN

CITY           SKY/WX    TMP DP  RH WIND       PRES   REMARKS
LA CROSSE      CLEAR     28  20  71 S3        30.07S
SPARTA         PTCLDY    24  19  80 CALM      30.07S
VIROQUA        CLEAR     26  21  79 CALM      30.05S
BOSCOBEL       MOCLDY    26  18  71 CALM      30.09F
PRAIRIE DU CHI PTCLDY    31  21  68 CALM      30.09S
PLATTEVILLE    PTCLDY    26  19  77 S7        30.09S WCI  18
$$

WIZ056-057-062-063-064-067-068-070400-
SOUTH CENTRAL WISCONSIN

CITY           SKY/WX    TMP DP  RH WIND       PRES   REMARKS
REEDSBURG      MOCLDY    27  19  72 CALM      30.06S
BARABOO/DELLS  MOCLDY    26  18  72 CALM      30.06S
LONE ROCK      NOT AVBL
MINERAL POINT  PTCLDY    28  21  74 S5        30.07S WCI  23
MADISON        MOCLDY    27  18  69 SW5       30.09F WCI  22
MIDDLETON      MOCLDY    28  18  66 SW3       30.08F
WATERTOWN      PTCLDY    22  17  80 SW6       30.09F WCI  15
MONROE         PTCLDY    23  19  86 S10       30.08F WCI  12
JANESVILLE     CLEAR     25  18  74 CALM      30.11F
$$

WIZ051-052-058>065-066-070>072-070400-
SOUTHEAST WISCONSIN

CITY           SKY/WX    TMP DP  RH WIND       PRES   REMARKS
MILWAUKEE      PTCLDY    23  15  71 SW9       30.12S WCI  13
WAUKESHA       CLEAR     25  18  74 SW7       30.11R WCI  17
MILWAUKEE/TIMM CLEAR     23  16  74 SW6       30.11S WCI  16
RACINE         PTCLDY    24  16  71 SW8       30.14S WCI  15
BURLINGTON     PTCLDY    20  15  82 SW8       30.12S WCI  10
KENOSHA        PTCLDY    24  17  74 SW13      30.12S WCI  12
FOND DU LAC    PTCLDY    24  14  65 SW9       30.07R WCI  14
SHEBOYGAN      CLEAR     23  14  68 SW10      30.07S WCI  12
WEST BEND      PTCLDY    27  18  69 SW9       30.08S WCI  17
JUNEAU         CLEAR     20  15  80 SW7       30.09S WCI  11
$$

LSZ147-162-070400-
LAKE SUPERIOR

STATION/POSITION TIME  TEMP    WIND        PRES    WAVE
                       AIR SEA DIR/SP/G            HT/PER
                 (UTC) (F)     (DEG/KT/KT) (MB)    (FT/S)
DEVILS ISLAND    0200   28     230/ 12/ 12 1015.5F
PORT WING        0200   28     180/  6/  6 1015.6S
SAXON HARBOR     0200   23     200/  3/  6 1015.2F
$$

LMZ867-665-643>646-070400-
LAKE MICHIGAN

STATION/POSITION TIME  TEMP    WIND        PRES    WAVE
                       AIR SEA DIR/SP/G            HT/PER
                 (UTC) (F)     (DEG/KT/KT) (MB)    (FT/S)
NORTHPORT PIER   0201   25     230/  5/ 10 1015.9S
SISTER BAY       0213   26     240/ 13/ 16   N/A
KEWAUNEE LAKESHO 0200   25     240/  8/ 14 1016.5S
SHEBOYGAN LAKESH 0200   26     240/ 13/ 15 1019.9F
PORT WASHINGTON  0240   26     240/  6/  9 1020.0S
MILWAUKEE LAKESH 0200   26     230/ 11/ 13   N/A
KENOSHA   LAKESH 0200   26     210/  9/ 13 1020.3F
$$

TC  - TEMPERATURE IN CELSIUS
VSB - VISIBILITY IN STATUTE MILES
WCI - WIND CHILL INDEX
HX  - HEAT INDEX




USA.gov is the U.S. government's official web portal to all federal, state and local government web resources and services.